Regional Weather Roundup
Issued by NWS

Home | Current Version | Previous Version | Text Only | Print | Product List | Glossary Off
Versions: 1 2 3 4 5 6 7 8 9 10 11 12 13 14 15 16 17 18 19 20 21 22 23 24 25 26 27 28 29 30 31 32 33 34 35 36 37 38 39 40 41 42 43 44 45 46 47 48 49 50

019
ASUS43 KDMX 081308
RWRIA

WEATHER ROUNDUP FOR IOWA
NATIONAL WEATHER SERVICE DES MOINES IA
700 AM CST MON FEB 08 2016

NOTE: "FAIR" INDICATES FEW OR NO CLOUDS BELOW 12,000 FEET WITH NO
SIGNIFICANT WEATHER AND/OR OBSTRUCTIONS TO VISIBILITY.

* - THESE STATIONS ARE NOT NWS STATIONS...THUS NOT UNDER NWS
QUALITY CONTROL.  THEY ALSO DO NOT REPORT WEATHER SUCH
AS PRECIPITATION OR FOG.

IAZ001>003-012>014-020>022-031>034-043>046-081400-
   NORTHWEST IOWA

CITY           SKY/WX    TMP DP  RH WIND       PRES   REMARKS
CARROLL *      LGT SNOW  19  14  79 NW35G43   29.95R WCI  -1
CHEROKEE *     LGT SNOW  18  16  93 N24G36    29.99S WCI   0
DENISON *      LGT SNOW  19  18  93 N20G31    29.97R WCI   4
LE MARS *      LGT SNOW  23  21  93 N24G33    30.04R WCI   7
ORANGE CITY *    N/A     18  16  93 N22G31    30.00R WCI   0
SHELDON *      LGT SNOW  16  14  93 N35G46    29.97S VSB 3/4 WCI  -6
SIOUX CITY     CLOUDY    26  16  65 N30G41    30.03S WCI  10
SPENCER        CLOUDY    15   8  73 NW40      29.95R BLWGSNOWWCI  -8
STORM LAKE *   FLURRIES  18  14  86 N32G43    29.95R WCI  -3
$$

IAZ055>058-069>071-079>083-090>094-081400-
   SOUTHWEST IOWA

CITY           SKY/WX    TMP DP  RH WIND       PRES   REMARKS
ATLANTIC *     LGT SNOW  21  18  86 NW30G36   29.98R VSB 1   WCI   3
AUDUBON *      LGT SNOW  19  16  86 N25G33    29.97R VSB 1   WCI   2
CLARINDA *     LGT SNOW  27  21  80 NW16G39   30.02R WCI  14
COUNCIL BLFS * CLOUDY    27  19  74 N23G31    30.00S WCI  12
CRESTON *      FLURRIES  21  14  73 NW37G44   29.94R WCI   1
HARLAN  *      LGT SNOW  21  19  93 N33G44    30.01S VSB 3/4 WCI   2
LAMONI         FLURRIES  22  14  71 NW30G41   29.92R WCI   4
RED OAK *      LGT SNOW  25  21  86 N20G29    30.01R WCI  11
SHENANDOAH *   MIX PCPN  28  21  74 NW23G36   30.03R WCI  14
$$

IAZ047>049-059>061-072>074-084-081400-
   CENTRAL IOWA

CITY           SKY/WX    TMP DP  RH WIND       PRES   REMARKS
AMES           LGT SNOW  15  11  83 NW29G37   29.89R VSB 3/4 WCI  -5
ANKENY *       FLURRIES  18  10  73 N23G36    29.90F WCI   0
BOONE *        LGT SNOW  16  10  79 NW21G31   29.89R WCI  -2
CHARITON *     LGT SNOW  18  12  79 NW29      29.89R WCI  -2
DES MOINES     LGT SNOW  18  11  74 NW22G29   29.91R BLWGSNOWWCI   1
GRINNELL*      FLURRIES  16  10  79 NW23G33   29.84S WCI  -2
KNOXVILLE *    LGT SNOW  18  10  73 NW26G37   29.86R WCI  -1
MARSHALLTOWN   CLOUDY    15   9  76 NW24G33   29.84R WCI  -4
NEWTON *       FLURRIES  16  10  79 NW33G40   29.86S WCI  -5
PELLA *        LGT SNOW  18  10  73 NW26G35   29.89R WCI  -1
$$

IAZ004>006-015-016-023>025-035-036-081400-
   NORTH CENTRAL IOWA

CITY           SKY/WX    TMP DP  RH WIND       PRES   REMARKS
ALGONA *       LGT SNOW  14  10  85 N29G45    29.88R VSB 3/4 WCI  -7
CLARION *      LGT SNOW  12   7  79 NW24G38   29.87R WCI  -8
ESTHERVILLE    SNOW      13  10  88 N36G45    29.91S VSB 1/4 WCI -10
FORT DODGE *   CLOUDY    14   7  73 NW17G25   29.91R WCI  -3
MASON CITY     LGT SNOW  11   8  88 NW29G36   29.84R VSB 3/4 WCI -11
FOREST CITY *  LGT SNOW  12   9  85 NW30G38   29.84R WCI  -9
WEBSTER CITY * SNOW      14  10  85 NW36G44   29.87R VSB 1/4 WCI  -8
IOWA FALLS *   LGT SNOW  14  10  85 NW21G33   29.86R WCI  -4
$$

IAZ007>011-017>019-026>030-037>042-050>054-066-081400-
   NORTHEAST IOWA

CITY           SKY/WX    TMP DP  RH WIND       PRES   REMARKS
CEDAR RAPIDS   FLURRIES  17  11  77 NW21G31   29.78R WCI   0
CHARLES CITY * CLOUDY    14  10  85 NW18G30   29.80R FOG     WCI  -3
CLINTON *      CLOUDY    19  13  77 NW22      29.73R WCI   2
DECORAH *      FLURRIES  14  10  85 NW15G22   29.73R WCI  -1
DUBUQUE        LGT SNOW  17  12  80 NW17      29.70R WCI   1
MONTICELLO *   FLURRIES  18  12  79 NW17G24   29.74R WCI   2
OELWEIN *      LGT SNOW  14  10  85 NW23G33   29.77R WCI  -5
WATERLOO       LGT SNOW  14   8  77 NW20G32   29.80S WCI  -3
$$

IAZ064-065-067-068-078-081400-
   EAST CENTRAL IOWA

CITY           SKY/WX    TMP DP  RH WIND       PRES   REMARKS
DAVENPORT      LGT SNOW  19  12  74 NW17G26   29.75R WCI   4
IOWA CITY      FLURRIES  19  12  74 NW17G24   29.81R WCI   4
MT. PLEASANT * FLURRIES  23  16  74 NW18      29.81R WCI   9
MUSCATINE *    FLURRIES  21  14  73 NW22      29.80S WCI   5
QUAD CITIES    CLOUDY    21  12  68 NW15G24   29.75R HAZE    WCI   8
$$

IAZ062-063-075>077-085>089-095>099-081400-
   SOUTHEAST IOWA

CITY           SKY/WX    TMP DP  RH WIND       PRES   REMARKS
BURLINGTON     CLOUDY    21  14  74 NW16      29.79R WCI   7
FAIRFIELD *    LGT SNOW  18   9  68 NW28G36   29.82S WCI  -1
FORT MADISON * CLOUDY    19  16  86 NW22G29   29.81R WCI   3
KEOKUK *       LGT SNOW  23  21  93 NW12      29.82R WCI  12
OSKALOOSA *    LGT SNOW  18  12  79 NW26G32   29.85S WCI  -1
CENTERVILLE *    N/A    N/A N/A N/A MISG        N/A
OTTUMWA        FLURRIES  18  11  74 NW33G43   29.85R WCI  -2
WASHINGTON *   FLURRIES  19  12  73 NW22G29   29.82R WCI   3
$$

ABBREVIATIONS USED IN REMARKS
   TC - TEMPERATURES IN CELSIUS
  WCI - WIND CHILL INDEX
   HX - HEAT INDEX
  VSB - VISIBILITY
$$





USA.gov is the U.S. government's official web portal to all federal, state and local government web resources and services.